Wetterdaten Sommer 2016

Datum T max T min Regen
01.06.2016 19.1 °C 11.3 °C 2.2 mm
02.06.2016 18.9 °C 13.8 °C 8.8 mm
03.06.2016 21.2 °C 14.3 °C 3.4 mm
04.06.2016 20.8 °C 14.9 °C 4.4 mm
05.06.2016 22.5 °C 13.2 °C 7.6 mm
06.06.2016 27.8 °C 14.1 °C 0 mm
07.06.2016 26.7 °C 13.9 °C 0 mm
08.06.2016 21.1 °C 14.6 °C 16.4 mm
09.06.2016 22.1 °C 13.9 °C 13 mm
10.06.2016 23.9 °C 9.9 °C 0 mm
11.06.2016 20.3 °C 14.6 °C 2.2 mm
12.06.2016 19.2 °C 14.7 °C 7.6 mm
13.06.2016 20 °C 13.9 °C 9.6 mm
14.06.2016 18.8 °C 12.8 °C 7.4 mm
15.06.2016 19.7 °C 11.7 °C 1.4 mm
16.06.2016 16.9 °C 10.4 °C 4.2 mm
17.06.2016 17.4 °C 12.2 °C 25.6 mm
18.06.2016 20.9 °C 10.7 °C 1 mm
19.06.2016 19.8 °C 12.2 °C 0 mm
20.06.2016 23.1 °C 9.7 °C 0.8 mm
21.06.2016 22.8 °C 14.2 °C 0.8 mm
22.06.2016 29.1 °C 17.4 °C 0 mm
23.06.2016 33.9 °C 16.1 °C 0 mm
24.06.2016 32.6 °C 18.7 °C 0 mm
25.06.2016 24.4 °C 16.4 °C 11 mm
26.06.2016 21.2 °C 11.8 °C 0 mm
27.06.2016 22.1 °C 11.9 °C 0 mm
28.06.2016 23.3 °C 16.5 °C 3.2 mm
29.06.2016 25.7 °C 16.6 °C 0 mm
30.06.2016 24.5 °C 15.5 °C 1.4 mm
01.07.2016 27.4 °C 17 °C 0.2 mm
02.07.2016 19.4 °C 13.8 °C 2.2 mm
03.07.2016 18.7 °C 9.8 °C 0 mm
04.07.2016 25.3 °C 14.7 °C 0 mm
05.07.2016 23.6 °C 14.7 °C 0 mm
06.07.2016 22.4 °C 14.2 °C 0 mm
07.07.2016 26.3 °C 10.7 °C 0 mm
08.07.2016 28.1 °C 12.9 °C 0 mm
09.07.2016 27 °C 18.4 °C 0 mm
10.07.2016 33.2 °C 15.6 °C 0 mm
11.07.2016 28.3 °C 19.6 °C 4.6 mm
12.07.2016 20.9 °C 16.4 °C 16 mm
13.07.2016 18.4 °C 13 °C 5.2 mm
14.07.2016 18.8 °C 12.3 °C 0.2 mm
15.07.2016 19.9 °C 9.8 °C 0 mm
16.07.2016 23.3 °C 9.8 °C 0 mm
17.07.2016 26.1 °C 15.1 °C 0 mm
18.07.2016 28.3 °C 15.3 °C 0 mm
19.07.2016 31.4 °C 14.9 °C 0 mm
20.07.2016 33.7 °C 16.7 °C 0 mm
21.07.2016 23.8 °C 17.7 °C 14.2 mm
22.07.2016 27.8 °C 15.9 °C 20.2 mm
23.07.2016 25.4 °C 17.1 °C 0.4 mm
24.07.2016 26.8 °C 18 °C 0.2 mm
25.07.2016 27.3 °C 18.6 °C 0 mm
26.07.2016 28.6 °C 18.7 °C 1.2 mm
27.07.2016 25.8 °C 17.9 °C 0 mm
28.07.2016 24.9 °C 16.3 °C 7.8 mm
29.07.2016 26.2 °C 16.9 °C 0.2 mm
30.07.2016 28 °C 16.7 °C 0 mm
31.07.2016 23.1 °C 17.1 °C 3.2 mm
01.08.2016 23.6 °C 12.8 °C 0 mm
02.08.2016 19.9 °C 15.8 °C 0.4 mm
03.08.2016 24.8 °C 16.6 °C 0 mm
04.08.2016 25.8 °C 15.1 °C 20.8 mm
05.08.2016 19.6 °C 14.7 °C 13.6 mm
06.08.2016 21.9 °C 12.3 °C 0 mm
07.08.2016 25.5 °C 12 °C 0 mm
08.08.2016 26 °C 13.9 °C 0 mm
09.08.2016 19.9 °C 14.8 °C 1 mm
10.08.2016 17.9 °C 12.2 °C 0 mm
11.08.2016 18.6 °C 7.8 °C 0.4 mm
12.08.2016 20 °C 12.6 °C 1.8 mm
13.08.2016 26.5 °C 12.8 °C 0 mm
14.08.2016 26.8 °C 13.6 °C 0 mm
15.08.2016 27.1 °C 13.6 °C 0 mm
16.08.2016 26.4 °C 14 °C 0 mm
17.08.2016 24.5 °C 13.2 °C 0 mm
18.08.2016 23.1 °C 11.6 °C 0 mm
19.08.2016 24.6 °C 14.9 °C 0 mm
20.08.2016 22.8 °C 14.2 °C 6 mm
21.08.2016 20.4 °C 12.8 °C 0 mm
22.08.2016 21.2 °C 12.7 °C 0 mm
23.08.2016 26.9 °C 12.4 °C 0 mm
24.08.2016 29.9 °C 13.5 °C 0 mm
25.08.2016 31.2 °C 13.7 °C 0 mm
26.08.2016 31.3 °C 17.2 °C 0 mm
27.08.2016 32.2 °C 16.3 °C 0 mm
28.08.2016 30.5 °C 18.6 °C 2 mm
29.08.2016 25 °C 17.7 °C 0 mm
30.08.2016 24.8 °C 13.9 °C 0 mm
31.08.2016 26.3 °C 12.8 °C 0 mm
 Hinweis zur Datenqualität
∅ Temperatur

19 °C

Abweichung vom Mittel

+0.3 °C

Niederschlag

253.8 mm

Abweichung vom Mittel

114 %

33.9 °C

Lufttemperatur
23.06.2016

1030 hPa

Luftdruck
07.08.2016

30.6 km/h

Windböen
01.08.2016

253.8 mm

Niederschlag
 

7.8 °C

Lufttemperatur
11.08.2016

8.7 °C

Bodentemperatur 5cm
01.01.1970

1001 hPa

Luftdruck
14.06.2016
 Hinweis zur Datenqualität